AirNav   Phillips 66 Aviation Fuel
 
 404 users online  

61K Sedan City Airport
Sedan, Kansas, USA

GOING TO SEDAN?


FAA INFORMATION EFFECTIVE 19 JULY 2018

Location

FAA Identifier: 61K
Lat/Long: 37-08-54.1870N / 096-11-06.9710W
37-08.903117N / 096-11.116183W
37.1483853 / -96.1852697
(estimated)
Elevation: 1005 ft. / 306 m (estimated)
Variation: 06E (1985)
From city: 2 miles N of SEDAN, KS
Time zone: UTC -5 (UTC -6 during Standard Time)
Zip code: 67361

Airport Operations

Airport use: Open to the public
Activation date: 08/1968
Control tower: no
ARTCC: KANSAS CITY CENTER
FSS: WICHITA FLIGHT SERVICE STATION
NOTAMs facility: ICT (NOTAM-D service available)
Attendance: UNATNDD
Wind indicator: lighted
Segmented circle: yes
SEGMENTED CIRCLE NSTD.
Lights: ACTVT LIRL RY 18/36 - CTAF.

Airport Communications

CTAF: 122.9
WX AWOS-3 at IDP (19 nm E): 118.525 (620-331-5980)

Nearby radio navigation aids

VOR radial/distance  VOR name  Freq  Var
BVOr329/20.5BARTLESVILLE VOR/DME117.9008E

 
NDB name  Hdg/Dist  Freq  Var  ID
COFFEYVILLE271/29.621205ECFV -.-. ..-. ...-

Airport Services

Parking: tiedowns
Airframe service: NONE
Powerplant service: NONE
Bottled oxygen: NONE
Bulk oxygen: NONE

Runway Information

Runway 18/36

Dimensions: 3160 x 81 ft. / 963 x 25 m
Surface: turf, in fair condition
Runway edge lights: low intensity
RUNWAY 18  RUNWAY 36
Latitude: 37-09.236333N37-08.721667N
Longitude: 096-11.066167W096-11.165833W
Traffic pattern: leftleft
Obstructions: 29 ft. trees, 165 ft. from runway, 105 ft. left of centerline, 5:1 slope to clear5 ft. fence, 15 ft. from runway, 3:1 slope to clear

Runway 12/30

Dimensions: 1790 x 95 ft. / 546 x 29 m
Surface: turf, in fair condition
RUNWAY 12  RUNWAY 30
Traffic pattern: leftleft
Obstructions: 4 ft. fence
ROAD 20 FT FM RY END; PLINE AT 450 FT.
20 ft. trees, 67 ft. from runway, 66 ft. left of centerline, 3:1 slope to clear

Airport Ownership and Management from official FAA records

Ownership: Privately-owned
Owner: CITY OF SEDAN
CITY HALL
SEDAN, KS 67361
Phone 620-725-3193
LEASED TO CITY OF SEDAN.
Manager: JOHN MILLER
CITY HALL
SEDAN, KS 67361
Phone (620) 550-1195
HOME NUMBER (620) 725-3429

Airport Operational Statistics

Aircraft operations: avg 25/month *
67% local general aviation
33% transient general aviation
* for 12-month period ending 16 September 2015

Additional Remarks

WILDLIFE AND LIVESTOCK IN THE VICINITY AND POSSIBLY ON THE RY.

Instrument Procedures

There are no published instrument procedures at 61K.

Some nearby airports with instrument procedures:

KIDP - Independence Municipal Airport (19 nm E)
KBVO - Bartlesville Municipal Airport (25 nm S)
KCFV - Coffeyville Municipal Airport (30 nm E)
2K7 - Neodesha Municipal Airport (31 nm NE)
KPPF - Tri-City Airport (34 nm E)
 
Loc | Ops | Rwys | IFR | FBO | Links
Com | Nav | Svcs | Stats | Notes

Kansas City Aviation Department
 
Area around 61K (Sedan City Airport)
 
Road maps at: MapQuest Bing Google
 
Aerial photo
WARNING: Photo may not be current or correct
Aerial photo of 61K (Sedan City Airport)
Do you have a better or more recent aerial photo of Sedan City Airport that you would like to share? If so, please send us your photo.

 
Sectional chart

 
Airport distance calculator
Flying to Sedan City Airport? Find the distance to fly.

From to 61K

Sunrise and sunset
Times for 15-Aug-2018
 Local
(UTC-5)
 Zulu
(UTC)
Morning civil twilight06:1511:15
Sunrise06:4211:42
Sunset20:1601:16
Evening civil twilight20:4401:44

Current date and time
Zulu (UTC)  15-Aug-2018 09:55:09
Local (UTC-5)  15-Aug-2018 04:55:09
 
METAR
KIDP 
19nm E 
150935Z AUTO 23003KT 10SM SCT011 OVC045 21/21 A2990 RMK AO2 LTG DSNT S P0002 T02150212
KBVO 
24nm S 
150853Z AUTO 20004KT 10SM FEW050 BKN100 OVC120 21/20 A2991 RMK AO2 SLP116 T02110200 58002 $
KCFV 
30nm E 
150914Z AUTO 19006KT 10SM FEW021 BKN050 OVC075 22/22 A2987 RMK AO2 RAE11 P0001 T02220217
KPPF 
35nm E 
150939Z AUTO 25004KT 10SM SCT005 BKN012 OVC042 22/22 A2990 RMK AO2 RAB03E36 P0001 T02220217 $
TAF
KBVO 
24nm S 
150520Z 1506/1606 00000KT P6SM VCTS SCT025CB BKN100 TEMPO 1506/1510 2SM TSRA BR OVC015CB FM151000 19006KT P6SM VCSH BKN007 FM151500 24006KT P6SM BKN015 FM152000 28005KT P6SM BKN035 FM160000 00000KT P6SM BKN150
NOTAMs
Click for the latest NOTAMs
NOTAMs are issued by the DoD/FAA and will open in a separate window not controlled by AirNav.

 

 
 

Would you like to see your business listed on this page?

 If your business provides an interesting product or service to pilots, flight crews, aircraft, or users of the Sedan City Airport, you should consider listing it here.  To start the listing process, click on the button below
 
Add a business
 

Other Pages about Sedan City Airport

Update a link
 
Copyright © AirNav, LLC. All rights reserved. Privacy Policy  Contact